Date String (YYYY-MM-DD hh:mm:ss) UTC,Instrument flags,Ambient pressure (hPa),Sample flow (lpm),Bypass flow (lpm),Sample temperature (°C),Ambient temperature (°C),ASC tube jacket temperature (°C),LED temperature (°C),Box temperature (°C),Sample RH (%),Span deviation,Mass concentration (μg/m³),Mass concentration (μg/m³),Mass concentration (μg/m³)
DateTimeUTC,F1_M11,P_M11,Q1_M11,Q2_M11,T1_M11,T2_M11,T3_M11,T4_M11,T5_M11,U1_M11,ZSPAN_M11,X0_M11,X2_M11,X1_M11
2021-12-06 03:00:00,,0830.8,4.99,0.00,21.5,20.8,00.0,30.7,23.1,09.7,0000.0,0010.37,0002.08,0001.07
2021-12-06 03:01:00,,0830.8,5.01,0.00,21.5,20.8,00.0,30.7,23.0,09.8,0000.0,0010.55,0002.07,0001.07
2021-12-06 03:02:00,,0830.8,4.99,0.00,21.5,20.7,00.0,30.7,23.0,09.8,0000.0,0009.63,0002.07,0001.07
2021-12-06 03:03:00,,0830.8,5.00,0.00,21.4,20.7,00.0,30.7,23.0,09.9,0000.0,0009.02,0002.02,0001.07
2021-12-06 03:04:00,,0830.7,5.00,0.00,21.5,21.1,00.0,30.7,23.2,09.8,0000.0,0009.13,0002.13,0001.08
2021-12-06 03:05:00,,0830.6,5.00,0.00,21.6,21.9,00.0,30.7,23.5,09.8,0000.0,0008.88,0002.16,0001.11
2021-12-06 03:06:00,,0830.6,5.00,0.00,21.8,22.7,00.0,30.8,23.8,09.7,0000.0,0009.09,0002.26,0001.14
2021-12-06 03:07:00,,0830.8,5.00,0.00,21.9,22.6,00.0,30.8,23.9,09.6,0000.0,0009.63,0002.39,0001.17
2021-12-06 03:08:00,,0830.8,4.99,0.00,21.9,22.3,00.0,30.8,23.8,09.6,0000.0,0009.87,0002.43,0001.22
2021-12-06 03:09:00,,0830.8,5.01,0.00,21.9,22.1,00.0,30.8,23.7,09.6,0000.0,0010.84,0002.55,0001.31
2021-12-06 03:10:00,,0830.7,5.00,0.00,21.9,21.8,00.0,30.8,23.6,09.4,0000.0,0010.33,0002.59,0001.40
2021-12-06 03:11:00,,0830.7,5.00,0.00,21.9,21.7,00.0,30.8,23.6,09.2,0000.0,0009.83,0002.58,0001.43
2021-12-06 03:12:00,,0830.8,5.00,0.00,21.9,21.6,00.0,30.8,23.5,09.1,0000.0,0009.68,0002.60,0001.43
2021-12-06 03:13:00,,0830.7,5.02,0.00,21.9,21.6,00.0,30.9,23.5,09.0,0000.0,0009.47,0002.57,0001.42
2021-12-06 03:14:00,,0830.6,5.00,0.00,21.8,21.5,00.0,30.9,23.5,09.0,0000.0,0010.38,0002.59,0001.41
2021-12-06 03:15:00,,0830.7,4.99,0.00,21.8,21.4,00.0,30.9,23.5,09.0,0000.0,0011.39,0002.58,0001.39
2021-12-06 03:16:00,,0830.8,5.01,0.00,21.8,21.3,00.0,30.9,23.5,09.0,0000.0,0011.63,0002.63,0001.35
2021-12-06 03:17:00,,0830.6,5.01,0.00,21.8,21.3,00.0,30.9,23.4,09.0,0000.0,0011.70,0002.60,0001.33
2021-12-06 03:18:00,,0830.6,4.99,0.00,21.8,21.2,00.0,30.9,23.4,09.0,0000.0,0010.98,0002.51,0001.30
2021-12-06 03:19:00,,0830.6,5.01,0.00,21.8,21.2,00.0,30.9,23.3,09.0,0000.0,0010.59,0002.47,0001.27
2021-12-06 03:20:00,,0830.7,4.99,0.00,21.7,21.1,00.0,30.8,23.3,09.1,0000.0,0010.90,0002.39,0001.21
2021-12-06 03:21:00,,0830.8,5.01,0.00,21.7,21.0,00.0,30.8,23.2,09.1,0000.0,0010.40,0002.39,0001.13
2021-12-06 03:22:00,,0830.8,5.00,0.00,21.7,21.0,00.0,30.8,23.3,09.1,0000.0,0011.14,0002.39,0001.08
2021-12-06 03:23:00,,0830.8,5.01,0.00,21.7,21.0,00.0,30.8,23.2,09.0,0000.0,0011.29,0002.37,0001.07
2021-12-06 03:24:00,,0830.7,5.00,0.00,21.7,21.0,00.0,30.8,23.2,09.0,0000.0,0011.91,0002.36,0001.06
2021-12-06 03:25:00,,0830.8,4.99,0.00,21.6,21.0,00.0,30.8,23.2,09.0,0000.0,0011.66,0002.35,0001.07
2021-12-06 03:26:00,,0830.8,5.01,0.00,21.6,20.9,00.0,30.8,23.2,09.0,0000.0,0010.17,0002.28,0001.10
2021-12-06 03:27:00,,0830.9,5.00,0.00,21.6,21.1,00.0,30.8,23.3,09.0,0000.0,0009.70,0002.19,0001.10
2021-12-06 03:28:00,,0830.9,5.00,0.00,21.8,21.8,00.0,30.8,23.5,08.9,0000.0,0009.53,0002.16,0001.09
2021-12-06 03:29:00,,0830.9,5.00,0.00,21.9,22.6,00.0,30.9,23.9,08.9,0000.0,0009.44,0002.10,0001.09
2021-12-06 03:30:00,,0830.8,4.99,0.00,22.0,22.6,00.0,30.9,24.0,08.8,0000.0,0010.37,0002.12,0001.08
2021-12-06 03:31:00,,0830.9,5.01,0.00,22.0,22.4,00.0,30.9,23.9,08.8,0000.0,0010.38,0002.12,0001.06
2021-12-06 03:32:00,,0830.9,4.99,0.00,22.0,22.2,00.0,30.9,23.8,08.8,0000.0,0010.32,0002.10,0001.04
2021-12-06 03:33:00,,0830.9,5.02,0.00,22.0,22.0,00.0,30.9,23.8,08.8,0000.0,0010.17,0002.09,0001.05
2021-12-06 03:34:00,,0830.9,5.00,0.00,22.0,21.8,00.0,30.9,23.7,08.9,0000.0,0010.47,0002.06,0001.05
2021-12-06 03:35:00,,0830.9,4.99,0.00,22.0,21.7,00.0,30.9,23.6,09.0,0000.0,0010.21,0002.11,0001.06
2021-12-06 03:36:00,,0830.9,4.99,0.00,21.9,21.6,00.0,30.9,23.6,09.0,0000.0,0010.98,0002.12,0001.05
2021-12-06 03:37:00,,0830.9,5.00,0.00,21.9,21.5,00.0,30.9,23.5,09.0,0000.0,0011.54,0002.13,0001.02
2021-12-06 03:38:00,,0830.9,5.01,0.00,21.9,21.4,00.0,30.9,23.5,08.9,0000.0,0011.78,0002.16,0001.02
2021-12-06 03:39:00,,0831.0,4.99,0.00,21.9,21.3,00.0,30.9,23.5,09.0,0000.0,0011.74,0002.16,0001.02
2021-12-06 03:40:00,,0831.0,5.02,0.00,21.8,21.3,00.0,30.9,23.5,08.9,0000.0,0011.66,0002.14,0001.03
2021-12-06 03:41:00,,0830.9,5.00,0.00,21.8,21.3,00.0,30.9,23.4,08.9,0000.0,0010.84,0002.14,0001.02
2021-12-06 03:42:00,,0830.9,5.00,0.00,21.8,21.2,00.0,30.9,23.4,08.9,0000.0,0009.84,0002.09,0001.01
2021-12-06 03:43:00,,0831.0,5.01,0.00,21.8,21.2,00.0,30.9,23.4,09.0,0000.0,0010.08,0002.07,0001.01
2021-12-06 03:44:00,,0830.9,5.00,0.00,21.8,21.2,00.0,30.9,23.4,09.0,0000.0,0010.57,0002.10,0001.02
2021-12-06 03:45:00,,0830.9,5.00,0.00,21.8,21.1,00.0,30.9,23.4,09.0,0000.0,0011.33,0002.17,0001.01
2021-12-06 03:46:00,,0830.9,4.99,0.00,21.8,21.1,00.0,30.9,23.4,09.1,0000.0,0011.57,0002.11,0001.00
2021-12-06 03:47:00,,0830.9,5.00,0.00,21.7,21.1,00.0,30.9,23.3,09.1,0000.0,0010.59,0002.12,0001.00
2021-12-06 03:48:00,,0830.8,5.01,0.00,21.7,21.1,00.0,30.9,23.3,09.1,0000.0,0009.99,0002.19,0001.01
2021-12-06 03:49:00,,0830.9,5.01,0.00,21.8,21.7,00.0,30.9,23.5,09.1,0000.0,0009.88,0002.24,0001.02
2021-12-06 03:50:00,,0830.9,4.99,0.00,21.9,22.4,00.0,30.9,23.8,09.0,0000.0,0010.86,0002.30,0001.03
2021-12-06 03:51:00,,0830.9,5.00,0.00,22.1,22.7,00.0,31.0,24.0,09.0,0000.0,0011.48,0002.38,0001.03
2021-12-06 03:52:00,,0831.0,5.01,0.00,22.1,22.5,00.0,31.0,24.0,09.0,0000.0,0012.24,0002.40,0001.05
2021-12-06 03:53:00,,0830.9,5.00,0.00,22.1,22.2,00.0,31.0,23.9,09.0,0000.0,0013.04,0002.48,0001.09
2021-12-06 03:54:00,,0830.9,5.00,0.00,22.0,22.0,00.0,31.0,23.7,09.0,0000.0,0012.51,0002.54,0001.09
2021-12-06 03:55:00,,0830.8,5.01,0.00,22.0,21.8,00.0,31.0,23.6,09.1,0000.0,0012.77,0002.50,0001.08
2021-12-06 03:56:00,,0830.8,5.00,0.00,22.0,21.6,00.0,31.0,23.6,09.1,0000.0,0011.63,0002.45,0001.07
2021-12-06 03:57:00,,0830.9,5.00,0.00,21.9,21.5,00.0,31.0,23.5,09.2,0000.0,0011.45,0002.46,0001.08
2021-12-06 03:58:00,,0830.9,4.99,0.00,21.9,21.3,00.0,31.0,23.4,09.2,0000.0,0012.55,0002.41,0001.08
2021-12-06 03:59:00,,0830.9,5.01,0.00,21.8,21.2,00.0,31.0,23.3,09.2,0000.0,0012.75,0002.32,0001.08
